FW6285 Weather Reports


Display with metric or nautical units.
time (UTC)temp
F
wind
direction
speed
MPH
gust
MPH
rain 1hr
in
rain 24hr
in
rain mn
in
humidity
%
barometer
mb
20260506070753 63 139 0.0 0.0 0.00 0.04 0.00 71 1018.3
20260506070251 63 139 0.0 0.0 0.00 0.04 0.00 71 1018.3
20260506062211 63 139 2.0 3.0 0.00 0.06 0.04 69 1018.0
20260506061159 63 139 1.0 4.0 0.00 0.07 0.04 69 1017.9
20260506060653 63 139 2.0 4.0 0.00 0.07 0.04 69 1017.8
20260506060147 63 139 2.0 4.0 0.00 0.08 0.04 69 1017.7
20260506045023 64 76 0.0 0.0 0.00 0.08 0.04 68 1017.1
20260506044517 64 76 0.0 0.0 0.00 0.08 0.04 68 1017.1
20260506044017 64 76 0.0 0.0 0.00 0.08 0.04 68 1017.0
20260506043518 64 76 0.0 0.0 0.00 0.08 0.04 68 1016.9
20260506043016 64 76 0.0 0.0 0.00 0.09 0.04 68 1016.9
20260506042011 64 76 0.0 0.0 0.00 0.09 0.04 68 1016.8
20260506041510 64 76 0.0 0.0 0.00 0.09 0.04 68 1016.7
20260506041007 64 76 0.0 0.0 0.00 0.09 0.04 68 1016.6
20260506040505 64 76 0.0 0.0 0.00 0.09 0.04 68 1016.5
20260506040005 64 76 1.0 3.0 0.00 0.10 0.04 68 1016.6
20260506035003 64 76 2.0 3.0 0.00 0.12 0.04 68 1016.3
20260506034502 64 78 1.0 3.0 0.00 0.12 0.04 68 1016.3
20260506034001 64 78 2.0 6.0 0.00 0.12 0.04 68 1016.2
20260506032959 64 80 4.0 7.0 0.00 0.12 0.04 68 1015.9
20260506032458 64 100 4.0 7.0 0.00 0.12 0.04 68 1015.8
20260506031958 64 88 4.0 7.0 0.00 0.12 0.04 67 1015.8
20260506031457 64 93 4.0 7.0 0.00 0.12 0.04 67 1015.7
20260506030956 64 97 4.0 7.0 0.00 0.12 0.04 67 1015.7
20260506025950 64 96 4.0 7.0 0.00 0.12 0.04 67 1015.6
20260506024941 64 105 4.0 8.0 0.00 0.12 0.04 66 1015.5
20260506023941 64 103 5.0 9.0 0.00 0.12 0.04 66 1015.4
20260506023441 64 116 5.0 9.0 0.00 0.12 0.04 65 1015.4
20260506022941 64 118 4.0 8.0 0.00 0.12 0.04 65 1015.3
20260506022440 65 171 5.0 8.0 0.00 0.12 0.04 65 1015.2
20260506021938 65 140 5.0 8.0 0.00 0.12 0.04 65 1015.2
20260506021438 65 148 5.0 8.0 0.00 0.12 0.04 65 1015.2
20260506020939 65 139 5.0 8.0 0.00 0.12 0.04 65 1015.1
20260506020438 65 141 5.0 8.0 0.00 0.12 0.04 65 1015.1
20260506015939 65 136 4.0 8.0 0.00 0.12 0.04 64 1015.2
20260506015440 65 152 5.0 8.0 0.00 0.12 0.04 64 1015.1
20260506014935 65 148 5.0 9.0 0.00 0.12 0.04 64 1015.1
20260506014436 65 135 4.0 9.0 0.00 0.12 0.04 63 1015.1
20260506013936 65 157 4.0 7.0 0.00 0.12 0.04 64 1015.0
20260506013436 65 145 5.0 9.0 0.00 0.12 0.04 63 1015.0
20260506012935 65 156 5.0 9.0 0.00 0.12 0.04 63 1015.0
20260506012435 66 137 5.0 8.0 0.00 0.12 0.04 64 1015.0
20260506011936 65 165 5.0 10.0 0.00 0.12 0.04 63 1014.9
20260506011435 66 134 6.0 10.0 0.00 0.12 0.04 63 1014.9
20260506005936 66 142 7.0 10.0 0.00 0.12 0.04 63 1014.7
20260506005435 66 132 6.0 10.0 0.00 0.12 0.04 62 1014.6
20260506004935 66 158 6.0 9.0 0.00 0.12 0.04 62 1014.6
20260506003936 66 157 7.0 10.0 0.00 0.12 0.04 61 1014.7
20260506003435 66 153 7.0 10.0 0.00 0.12 0.04 61 1014.8
20260506002935 66 157 7.0 10.0 0.00 0.12 0.04 61 1014.7
20260506002434 66 129 6.0 10.0 0.00 0.12 0.04 60 1014.8
20260506001933 66 159 7.0 11.0 0.00 0.12 0.04 60 1014.7
20260506000928 67 138 5.0 9.0 0.00 0.12 0.04 60 1014.5
20260506000430 66 144 6.0 9.0 0.00 0.12 0.04 61 1014.5
20260505235930 66 123 6.0 10.0 0.00 0.12 0.04 60 1014.5
20260505235429 67 133 5.0 10.0 0.00 0.12 0.04 60 1014.5
20260505234428 67 141 6.0 11.0 0.00 0.12 0.04 61 1014.5
20260505233928 66 158 7.0 11.0 0.00 0.12 0.04 61 1014.4
20260505233424 67 110 8.0 11.0 0.00 0.12 0.04 60 1014.5
20260505232422 67 143 7.0 10.0 0.00 0.12 0.04 61 1014.4
20260505231922 67 113 6.0 10.0 0.00 0.12 0.04 60 1014.5
20260505231423 67 155 6.0 11.0 0.00 0.12 0.04 60 1014.5
20260505230922 67 135 7.0 11.0 0.00 0.12 0.04 60 1014.7
20260505230420 67 130 6.0 10.0 0.00 0.12 0.04 60 1014.6
20260505225918 67 118 6.0 10.0 0.00 0.12 0.04 60 1014.6
20260505224921 67 114 7.0 10.0 0.00 0.12 0.04 59 1014.7
20260505224420 67 102 6.0 10.0 0.00 0.12 0.04 59 1014.7
20260505223913 67 121 5.0 9.0 0.00 0.12 0.04 58 1014.7
20260505222900 68 175 4.0 7.0 0.00 0.12 0.04 58 1014.8
20260505222354 67 133 4.0 7.0 0.00 0.12 0.04 58 1014.9
20260505221849 67 184 4.0 9.0 0.00 0.12 0.04 58 1014.9
20260505221342 68 103 4.0 9.0 0.00 0.12 0.04 57 1014.9
20260505220836 67 119 3.0 8.0 0.00 0.12 0.04 57 1015.0
20260505220330 67 171 2.0 8.0 0.00 0.12 0.04 58 1015.1
20260505215824 67 267 2.0 6.0 0.00 0.12 0.04 59 1015.1
20260505214812 67 140 3.0 9.0 0.00 0.12 0.04 59 1015.1
20260505214306 67 179 4.0 9.0 0.00 0.12 0.04 59 1015.0
20260505213800 67 211 3.0 9.0 0.00 0.12 0.04 58 1015.1
20260505213254 67 207 3.0 7.0 0.00 0.12 0.04 59 1015.1
20260505211737 67 202 4.0 8.0 0.00 0.12 0.04 60 1015.3
20260505210219 67 200 5.0 10.0 0.00 0.12 0.04 58 1015.3
20260505205207 67 218 4.0 8.0 0.00 0.12 0.04 59 1015.3
20260505204154 67 221 5.0 8.0 0.00 0.12 0.04 59 1015.3
20260505203648 67 176 5.0 8.0 0.00 0.12 0.04 58 1015.4
20260505203142 67 198 3.0 8.0 0.00 0.12 0.04 59 1015.3
20260505202636 67 61 3.0 8.0 0.00 0.12 0.04 61 1015.4
20260505202130 66 98 2.0 7.0 0.00 0.12 0.04 63 1015.5
20260505200612 64 227 2.0 6.0 0.00 0.12 0.04 64 1015.7
20260505200107 64 238 3.0 7.0 0.00 0.12 0.04 64 1015.6
20260505195600 64 228 3.0 7.0 0.00 0.12 0.04 65 1015.7
20260505195054 64 254 3.0 7.0 0.00 0.12 0.04 64 1015.7
20260505194549 64 265 3.0 9.0 0.00 0.12 0.04 64 1015.7
20260505193030 63 228 4.0 10.0 0.00 0.12 0.04 66 1015.7
20260505192018 64 253 3.0 7.0 0.00 0.12 0.04 67 1015.8
20260505191512 63 312 3.0 6.0 0.00 0.12 0.04 67 1015.8
20260505191007 63 316 3.0 7.0 0.00 0.12 0.04 67 1015.9
20260505190500 62 259 3.0 7.0 0.00 0.12 0.04 67 1015.9
20260505185955 62 236 2.0 5.0 0.00 0.12 0.04 68 1015.8
20260505185449 61 174 3.0 6.0 0.00 0.12 0.04 70 1015.8
20260505184942 60 190 3.0 6.0 0.00 0.12 0.04 73 1015.8
20260505184436 60 210 3.0 5.0 0.00 0.12 0.04 74 1015.9
20260505183930 60 200 3.0 5.0 0.00 0.12 0.04 74 1015.9
20260505183424 60 259 2.0 4.0 0.00 0.12 0.04 75 1015.9
20260505182919 59 355 2.0 4.0 0.00 0.12 0.04 76 1015.9
20260505182412 59 355 1.0 3.0 0.00 0.12 0.04 76 1015.9
20260505181906 59 355 2.0 5.0 0.00 0.12 0.04 76 1016.0
20260505181401 59 351 3.0 5.0 0.00 0.12 0.04 77 1016.0
20260505180349 59 202 2.0 4.0 0.00 0.12 0.04 78 1016.1
20260505175844 59 194 1.0 4.0 0.00 0.12 0.04 79 1016.0
20260505174844 58 179 2.0 5.0 0.00 0.12 0.04 80 1016.0
20260505174345 58 174 1.0 5.0 0.00 0.12 0.04 81 1016.0
20260505173843 58 178 2.0 3.0 0.00 0.12 0.04 81 1015.9
20260505173344 58 178 2.0 5.0 0.00 0.13 0.04 82 1015.9
20260505172842 57 186 1.0 5.0 0.00 0.13 0.04 83 1015.9
20260505172343 57 236 2.0 5.0 0.00 0.13 0.04 83 1015.8
20260505171843 57 236 2.0 5.0 0.00 0.13 0.04 83 1015.9
20260505171340 56 229 2.0 7.0 0.00 0.13 0.04 83 1015.8
20260505170841 56 227 3.0 7.0 0.00 0.13 0.04 83 1015.8
20260505165340 56 211 2.0 4.0 0.00 0.13 0.04 84 1016.0
20260505164840 56 211 2.0 4.0 0.00 0.13 0.04 84 1015.9
20260505164340 56 211 2.0 4.0 0.00 0.13 0.04 84 1015.9
20260505163841 56 211 2.0 5.0 0.00 0.13 0.04 84 1015.9
20260505162840 56 211 2.0 4.0 0.00 0.14 0.04 84 1015.9
20260505161839 55 199 2.0 4.0 0.00 0.14 0.04 84 1015.8
20260505161339 55 199 2.0 4.0 0.00 0.14 0.04 84 1015.7
20260505160841 55 199 2.0 4.0 0.00 0.14 0.04 84 1015.7
20260505160341 55 199 1.0 4.0 0.00 0.14 0.04 84 1015.7
20260505153337 55 199 2.0 4.0 0.00 0.14 0.04 85 1015.5
20260505152840 55 199 2.0 4.0 0.00 0.14 0.04 85 1015.5
20260505152332 55 176 1.0 3.0 0.00 0.14 0.04 85 1015.4
20260505151833 55 174 1.0 3.0 0.00 0.14 0.04 85 1015.3
20260505150827 55 174 0.0 2.0 0.00 0.14 0.04 85 1015.2
20260505140309 54 164 0.0 2.0 0.00 0.14 0.04 85 1014.6
20260505130220 54 164 0.0 0.0 0.00 0.14 0.04 85 1014.4
20260505124156 54 164 0.0 0.0 0.00 0.14 0.04 85 1014.3
20260505123650 54 164 0.0 2.0 0.00 0.14 0.04 85 1014.4
20260505123144 54 163 0.0 2.0 0.00 0.14 0.04 85 1014.4
20260505122638 54 163 0.0 2.0 0.00 0.14 0.04 85 1014.4
20260505122132 54 164 1.0 2.0 0.00 0.14 0.04 85 1014.4
20260505121626 54 164 1.0 5.0 0.00 0.14 0.04 85 1014.5
20260505121120 54 163 2.0 5.0 0.00 0.14 0.04 85 1014.5
20260505120614 54 163 2.0 4.0 0.00 0.14 0.04 85 1014.4
20260505120108 54 163 2.0 5.0 0.00 0.14 0.04 85 1014.4
20260505115602 54 165 2.0 5.0 0.00 0.14 0.04 85 1014.3
20260505115056 54 162 2.0 5.0 0.00 0.14 0.04 85 1014.3
20260505114550 54 162 3.0 5.0 0.00 0.14 0.04 85 1014.3
20260505113538 54 184 4.0 7.0 0.00 0.14 0.04 85 1014.3
20260505112526 54 197 2.0 4.0 0.00 0.14 0.04 85 1014.3
20260505112020 54 203 2.0 4.0 0.00 0.14 0.04 86 1014.3
20260505111514 54 201 1.0 4.0 0.00 0.14 0.04 86 1014.3
20260505101908 54 215 3.0 5.0 0.00 0.14 0.04 85 1014.2
20260505100856 54 184 2.0 4.0 0.00 0.14 0.04 85 1014.1
20260505100350 55 177 2.0 4.0 0.00 0.14 0.04 85 1014.2
20260505095844 55 177 2.0 4.0 0.00 0.14 0.04 85 1014.1
20260505095344 54 177 3.0 4.0 0.00 0.14 0.04 85 1014.1
20260505094841 55 177 2.0 4.0 0.00 0.14 0.04 85 1014.1
20260505094341 55 178 2.0 4.0 0.00 0.14 0.04 85 1014.1
20260505093842 55 178 2.0 3.0 0.00 0.14 0.04 85 1014.2
20260505093342 55 178 2.0 4.0 0.00 0.14 0.04 85 1014.1
20260505092338 55 178 1.0 5.0 0.00 0.14 0.04 85 1014.3
20260505091838 55 178 2.0 5.0 0.00 0.14 0.04 85 1014.3
20260505091336 55 178 3.0 5.0 0.00 0.14 0.04 85 1014.3
20260505090832 55 176 3.0 5.0 0.00 0.14 0.04 85 1014.3
20260505090333 55 177 3.0 5.0 0.00 0.14 0.04 85 1014.4
20260505085334 55 155 3.0 6.0 0.00 0.14 0.04 85 1014.4
20260505084834 55 162 3.0 5.0 0.00 0.14 0.04 85 1014.4
20260505084332 54 174 3.0 5.0 0.00 0.14 0.04 85 1014.4
20260505083332 55 137 2.0 5.0 0.00 0.14 0.04 85 1014.4
20260505082833 55 119 2.0 4.0 0.00 0.14 0.04 85 1014.4
20260505082330 55 95 2.0 4.0 0.01 0.14 0.04 84 1014.5
20260505081330 55 95 2.0 6.0 0.04 0.14 0.04 84 1014.5
20260505080329 55 100 3.0 4.0 0.04 0.14 0.04 84 1014.5
20260505075828 55 97 3.0 4.0 0.04 0.14 0.04 84 1014.4
20260505073330 55 226 3.0 5.0 0.05 0.14 0.04 83 1013.6
20260505072828 55 179 2.0 5.0 0.06 0.14 0.04 83 1014.2
20260505072330 55 146 1.0 3.0 0.05 0.13 0.03 83 1014.7
20260505071829 55 133 1.0 3.0 0.04 0.11 0.02 83 1014.7
20260505071330 55 78 1.0 3.0 0.03 0.10 0.00 83 1014.9